Location: Quesnel
(52.9830°N, 122.4830°W)
Time: 21:23:19
(UTC-07:00)

ISS - All Passes

Search period start: 04 July 2015 00:00
Search period end: 14 July 2015 00:00
Orbit: 398 x 403 km, 51.6° (Epoch: 04 July)

Date Brightness Start Highest point End Pass type
(mag) Time Alt. Az. Time Alt. Az. Time Alt. Az.
04 Jul - 09:31:52 10° SSW 09:34:31 23° SSE 09:37:11 10° E daylight
04 Jul - 11:07:20 10° WSW 11:10:33 60° SSE 11:13:46 10° E daylight
04 Jul - 12:43:36 10° W 12:46:50 64° S 12:50:03 10° ESE daylight
04 Jul - 14:20:06 10° W 14:22:55 27° SSW 14:25:42 10° SSE daylight
05 Jul - 08:39:10 10° S 08:41:12 16° SE 08:43:18 10° ESE daylight
05 Jul - 10:13:57 10° WSW 10:17:06 48° SSE 10:20:15 10° E daylight
05 Jul - 11:50:07 10° W 11:53:21 70° S 11:56:35 10° E daylight
05 Jul - 13:26:30 10° W 13:29:32 37° SSW 13:32:34 10° SE daylight
05 Jul - 15:04:22 10° WSW 15:05:18 11° SW 15:06:08 10° SSW daylight
06 Jul - 07:47:52 10° SE 07:47:57 10° SE 07:48:07 10° SE daylight
06 Jul - 09:20:40 10° SW 09:23:40 35° SSE 09:26:42 10° E daylight
06 Jul - 10:56:36 10° W 10:59:51 70° S 11:03:05 10° E daylight
06 Jul - 12:32:56 10° W 12:36:06 50° SSW 12:39:16 10° ESE daylight
06 Jul - 14:09:49 10° WSW 14:12:01 17° SW 14:14:11 10° S daylight
07 Jul - 08:27:33 10° SSW 08:30:17 25° SSE 08:33:02 10° E daylight
07 Jul - 10:03:07 10° WSW 10:06:20 62° S 10:09:34 10° E daylight
07 Jul - 11:39:24 10° W 11:42:37 62° S 11:45:50 10° ESE daylight
07 Jul - 13:15:57 10° W 13:18:41 25° SSW 13:21:23 10° SSE daylight
08 Jul - 07:34:43 10° S 07:36:55 17° SE 07:39:11 10° ESE daylight
08 Jul - 09:09:40 10° WSW 09:12:51 51° SSE 09:16:01 10° E daylight
08 Jul - 10:45:52 10° W 10:49:06 69° S 10:52:21 10° E daylight
08 Jul - 12:22:16 10° W 12:25:16 35° SSW 12:28:16 10° SE daylight
09 Jul - 06:42:37 10° SSE 06:43:37 11° SE 06:44:41 10° ESE daylight
09 Jul - 08:16:20 10° SW 08:19:22 38° SSE 08:22:25 10° E daylight
09 Jul - 09:52:19 10° W 09:55:34 70° S 09:58:49 10° E daylight
09 Jul - 11:28:40 10° W 11:31:49 47° SSW 11:34:57 10° ESE daylight
09 Jul - 13:05:39 10° WSW 13:07:42 15° SW 13:09:41 10° S daylight
10 Jul - 07:23:07 10° SSW 07:25:56 27° SSE 07:28:46 10° E daylight
10 Jul - 08:58:47 10° WSW 09:02:01 64° S 09:05:15 10° E daylight
10 Jul - 10:35:05 10° W 10:38:18 60° SSW 10:41:30 10° ESE daylight
10 Jul - 12:11:40 10° W 12:14:19 23° SSW 12:16:57 10° SSE daylight
11 Jul - 06:30:11 10° SSW 06:32:31 19° SSE 06:34:55 10° E daylight
11 Jul - 08:05:18 10° WSW 08:08:29 53° SSE 08:11:40 10° E daylight
11 Jul - 09:41:30 10° W 09:44:45 68° S 09:47:59 10° ESE daylight
11 Jul - 11:17:55 10° W 11:20:53 33° SSW 11:23:51 10° SE daylight
12 Jul - 05:37:47 10° SSE 05:39:10 12° SE 05:40:38 10° ESE daylight
12 Jul - 07:11:53 10° SW 07:14:58 40° SSE 07:18:03 10° E daylight
12 Jul - 08:47:56 10° W 08:51:10 71° S 08:54:25 10° E daylight
12 Jul - 10:24:16 10° W 10:27:24 45° SSW 10:30:31 10° SE daylight
12 Jul - 12:01:24 10° WSW 12:03:15 14° SW 12:05:02 10° S daylight
13 Jul - 06:18:36 10° SW 06:21:28 29° SSE 06:24:22 10° E daylight
13 Jul - 07:54:21 10° WSW 07:57:35 66° S 08:00:49 10° E daylight
13 Jul - 09:30:39 10° W 09:33:51 57° SSW 09:37:03 10° ESE daylight
13 Jul - 11:07:18 10° W 11:09:51 21° SSW 11:12:22 10° SSE daylight
